Terug naar catalogus

CZ-2C R/B

ActiefPO
NORAD 28222·ROCKET BODY·🇨🇳 China

Gelanceerd Apr 18, 2004 vanaf Xichang Satellite Launch Center

Loading…

Volgende Passages (komende 24 uur)

TLE

VersSource: Space-Track

Epoch: Sep 14, 2026, 12:45 UTC

1 28222U 04012C   26257.53165051  .02730358  26891-5  48772-3 0  9991
2 28222  97.6971 345.6448 0012922 264.5163  95.4657 16.32398146234125

Volg CZ-2C R/B in realtime met AllMySat

Download on the App Store